Regional Weather Roundup
Issued by NWS

Home | Current Version | Previous Version | Text Only | Print | Product List | Glossary On
Versions: 1 2 3 4 5 6 7 8 9 10 11 12 13 14 15 16 17 18 19 20 21 22 23 24 25 26 27 28 29 30 31 32 33 34 35 36 37 38 39 40 41 42 43 44 45 46 47 48 49 50
000
ASUS46 KSEW 281810
RWRWA

WASHINGTON REGIONAL WEATHER ROUNDUP
NATIONAL WEATHER SERVICE SEATTLE WA
1100 AM PDT SAT MAR 28 2015

NOTE:"FAIR" INDICATES FEW OR NO CLOUDS BELOW 12,000 FEET WITH NO
SIGNIFICANT WEATHER AND/OR OBSTRUCTIONS TO VISIBILITY.

WAZ505-507>509-281900-
SEATTLE, TACOMA, EVERETT, AND VICINITY

CITY           SKY/WX    TMP DP  RH WIND       PRES   REMARKS
EVERETT        PTSUNNY   53  43  68 S10       30.31R
6HR MIN TEMP:  48; 6HR MAX TEMP:  53;

BOEING FIELD   PTSUNNY   58  43  57 S9G20     30.32R
6HR MIN TEMP:  52; 6HR MAX TEMP:  58;

RENTON         PTSUNNY   56  42  59 S13G24    30.32R
6HR MIN TEMP:  50; 6HR MAX TEMP:  56;

SEATAC AIRPORT PTSUNNY   54  44  69 SW17G24   30.33R
6HR MIN TEMP:  49; 6HR MAX TEMP:  54;

JBLM-MCCHORD   PTSUNNY   55  46  72 S13       30.33R
6HR MIN TEMP:  48; 6HR MAX TEMP:  55;

PUYALLUP       CLOUDY    54  46  76 SW8       30.34S
BREMERTON      PTSUNNY   54  45  71 SW21G29   30.31F
6HR MIN TEMP:  45; 6HR MAX TEMP:  54;

JBLM-FT LEWIS  PTSUNNY   54  47  77 S14       30.33R
6HR MIN TEMP:  48; 6HR MAX TEMP:  54;

TACOMA NARROWS PTSUNNY   54  43  66 SW12      30.33R
6HR MIN TEMP:  49; 6HR MAX TEMP:  54;

$$

WAZ001-503-506-510-514-515-281900-
NORTH INTERIOR

CITY           SKY/WX    TMP DP  RH WIND       PRES   REMARKS
BELLINGHAM     PTSUNNY   54  43  66 S13       30.26R
6HR MIN TEMP:  50; 6HR MAX TEMP:  54; 6HR PCP: TRACE;

FRIDAY HARBOR  MOSUNNY   54  44  69 SW10G21   30.28R
6HR MIN TEMP:  49; 6HR MAX TEMP:  55;

EASTSOUND      MOSUNNY   55  41  58 SW6G22    30.24R
PORT ANGELES   CLOUDY    55  42  61 NW5       30.28R
6HR MIN TEMP:  49; 6HR MAX TEMP:  56;

NAS WHIDBEY    PTSUNNY   56  44  64 SW8       30.31R
6HR MIN TEMP:  52; 6HR MAX TEMP:  56;

ARLINGTON      CLOUDY    54  45  71 S10       30.33R
6HR MIN TEMP:  48; 6HR MAX TEMP:  54;

BURLINGTON     PTSUNNY   55  45  67 MISG      30.30R
$$

WAZ020-022-039-040-504-511-512-281900-
SOUTHWEST INTERIOR

CITY           SKY/WX    TMP DP  RH WIND       PRES   REMARKS
SHELTON        CLOUDY    51  47  86 SW9       30.31R
6HR MIN TEMP:  47; 6HR MAX TEMP:  52; 6HR PCP: TRACE;

OLYMPIA        CLOUDY    53  46  77 S8        30.35R
6HR MIN TEMP:  48; 6HR MAX TEMP:  53; 6HR PCP:  0.02;

CHEHALIS       MOCLDY    55  48  76 SW6       30.36R
KELSO          CLOUDY    54  45  71 S8        30.42R
6HR MIN TEMP:  48; 6HR MAX TEMP:  54; 6HR PCP:  0.01;

VANCOUVER      CLOUDY    54  44  69 SW6       30.39R
6HR MIN TEMP:  49; 6HR MAX TEMP:  54;

SCAPPOOSE, OR  CLOUDY    55  46  71 SW6       30.38R
6HR MIN TEMP:  38; 6HR MAX TEMP:  55;

PORTLAND, OR   CLOUDY    56  45  66 SW12      30.40R
6HR MIN TEMP:  48; 6HR MAX TEMP:  56;

$$

WAZ021-516-517-281900-
WASHINGTON COAST

CITY           SKY/WX    TMP DP  RH WIND       PRES   REMARKS
FORKS          CLOUDY    52  48  86 S9        30.30R
6HR MIN TEMP:  48; 6HR MAX TEMP:  53; 6HR PCP:  0.01;

HOQUIAM        CLOUDY    54  48  80 SW9       30.34R
6HR MIN TEMP:  50; 6HR MAX TEMP:  55; 6HR PCP: TRACE;

ASTORIA, OR    CLOUDY    52  48  86 S8        30.37R
6HR MIN TEMP:  50; 6HR MAX TEMP:  55; 6HR PCP:  0.05;

$$

WAZ019-023-024-040-518-519-281900-
CASCADE MOUNTAINS AND COLUMBIA GORGE

CITY           SKY/WX    TMP DP  RH WIND       PRES   REMARKS
TROUTDALE, OR  CLOUDY    56  45  66 SW10      30.39R
6HR MIN TEMP:  50; 6HR MAX TEMP:  57;

THE DALLES, OR CLOUDY    56  43  61 NW13      30.33R
6HR MIN TEMP:  45; 6HR MAX TEMP:  57;

$$

WAZ026-027-041>044-520-521-281900-
EAST SLOPES

CITY           SKY/WX    TMP DP  RH WIND       PRES   REMARKS
OMAK           CLOUDY    60  34  37 SW17      30.06R
6HR MIN TEMP:  50; 6HR MAX TEMP:  60;

WENATCHEE      SUNNY     60  33  36 NW25G33   30.10R
6HR MIN TEMP:  50; 6HR MAX TEMP:  60;

ELLENSBURG     SUNNY     56  36  47 NW31G40   30.18R
6HR MIN TEMP:  40; 6HR MAX TEMP:  56;

YAKIMA         SUNNY     63  31  30 W21G29    30.20R
6HR MIN TEMP:  43; 6HR MAX TEMP:  63;

$$

WAZ028-034-035-281900-
COLUMBIA BASIN

CITY           SKY/WX    TMP DP  RH WIND       PRES   REMARKS
EPHRATA        SUNNY     59  33  37 SW14G25   30.14R
6HR MIN TEMP:  42; 6HR MAX TEMP:  59;

MOSES LAKE     SUNNY     59  34  39 W26G33    30.16R
6HR MIN TEMP:  47; 6HR MAX TEMP:  60;

PASCO          SUNNY     60  39  45 W29G44    30.24R
6HR MIN TEMP:  50; 6HR MAX TEMP:  60;

HERMISTON, OR  SUNNY     60  37  42 W28G40    30.28R
6HR MIN TEMP:  47; 6HR MAX TEMP:  60;

$$

WAZ036>038-281900-
NORTHEAST WASHINGTON

CITY           SKY/WX    TMP DP  RH WIND       PRES   REMARKS
SPOKANE GEIGER PTSUNNY   51  37  58 SW33G40   30.08R
6HR MIN TEMP:  43; 6HR MAX TEMP:  51;

SPOKANE FELTS  CLOUDY    52  37  56 W16G32    30.10R
6HR MIN TEMP:  46; 6HR MAX TEMP:  53;

FAIRCHILD AFB  LGT RAIN  51  38  61 SW28G39   30.09R
6HR MIN TEMP:  41; 6HR MAX TEMP:  51; 6HR PCP: TRACE;

COEURDALENE,ID PTSUNNY   50  39  66 SW25G38   30.06S
6HR MIN TEMP:  45; 6HR MAX TEMP:  50;

DEER PARK      PTSUNNY   53  37  54 SW17G25   30.07R
6HR MIN TEMP:  43; 6HR MAX TEMP:  53;

$$

WAZ029>033-281900-
SOUTHEAST WASHINGTON

CITY           SKY/WX    TMP DP  RH WIND       PRES   REMARKS
PULLMAN        MOSUNNY   49  39  68 W31G44    30.18R
                                      6HR PCP:  0.02;

LEWISTON, ID   SUNNY     58  34  40 W18G30    30.18R
6HR MIN TEMP:  48; 6HR MAX TEMP:  58;

WALLA WALLA    SUNNY     57  39  51 SW28G35   30.27R
6HR MIN TEMP:  49; 6HR MAX TEMP:  57;

PENDLETON, OR  SUNNY     54  37  52 W29G38    30.29R
6HR MIN TEMP:  46; 6HR MAX TEMP:  54;

$$


USA.gov is the U.S. government's official web portal to all federal, state and local government web resources and services.